This is the latest recevied weather packets stored in our database for station/object NC4M. If no packets are shown the sender has not sent any weather packets the latest 10 day(s).
| Time | Temp. | Humidity | Pressure | Rain* | Wind** | Luminosity | Snow |
|---|---|---|---|---|---|---|---|
| 1787530644 | 22.22° C | 73% | 1018.2 hPa | 0 mm | - | 8 W/m² | - |
| 1787530339 | 22.22° C | 74% | 1018.3 hPa | 0 mm | - | 11 W/m² | - |
| 1787530034 | 22.78° C | 73% | 1018.3 hPa | 0 mm | - | 13 W/m² | - |
| 1787529730 | 22.78° C | 75% | 1018.3 hPa | 0 mm | - | 15 W/m² | - |
| 1787529430 | 22.78° C | 72% | 1018.4 hPa | 0 mm | - | 18 W/m² | - |
| 1787529129 | 23.33° C | 69% | 1018.5 hPa | 0 mm | - | 19 W/m² | - |
| 1787528826 | 23.33° C | 68% | 1018.4 hPa | 0 mm | - | 22 W/m² | - |
| 1787528521 | 23.33° C | 69% | 1018.7 hPa | 0 mm | - | 26 W/m² | - |
| 1787528216 | 23.33° C | 69% | 1018.8 hPa | 0 mm | - | 32 W/m² | - |
| 1787527913 | 23.33° C | 68% | 1018.8 hPa | 0 mm | - | 34 W/m² | - |
| 1787527609 | 23.33° C | 65% | 1018.9 hPa | 0 mm | - | 43 W/m² | - |
| 1787527304 | 23.89° C | 66% | 1018.8 hPa | 0 mm | - | 53 W/m² | - |
| 1787527000 | 23.89° C | 62% | 1018.6 hPa | 0 mm | - | 55 W/m² | - |
| 1787526695 | 23.89° C | 61% | 1018.6 hPa | 0 mm | - | 57 W/m² | - |
| 1787526392 | 23.89° C | 65% | 1018.5 hPa | 0 mm | - | 80 W/m² | - |
| 1787526088 | 24.44° C | 60% | 1018.6 hPa | 0 mm | - | 93 W/m² | - |
| 1787525784 | 24.44° C | 60% | 1018.6 hPa | 0 mm | - | 102 W/m² | - |
| 1787525484 | 24.44° C | 59% | 1018.6 hPa | 0 mm | - | 113 W/m² | - |
| 1787525179 | 24.44° C | 58% | 1018.5 hPa | 0 mm | - | 122 W/m² | - |
| 1787524875 | 24.44° C | 60% | 1018.4 hPa | 0 mm | - | 118 W/m² | - |
| 1787524571 | 24.44° C | 62% | 1018.6 hPa | 0 mm | - | 116 W/m² | - |
| 1787524270 | 24.44° C | 61% | 1018.6 hPa | 0 mm | - | 112 W/m² | - |
| 1787523966 | 24.44° C | 61% | 1018.5 hPa | 0 mm | - | 105 W/m² | - |
| 1787523661 | 24.44° C | 63% | 1018.6 hPa | 0 mm | - | 104 W/m² | - |
| 1787523361 | 24.44° C | 66% | 1018.5 hPa | 0 mm | - | 106 W/m² | - |
* Rain latest hour (hover to see other rain measurements)
** Current wind speed in m/s (hover to see current wind gust speed)